COOK73 OYSQ-HTMW

Flight info

Callsign COOK73
Flight time N/A
Altitude 34000
Route DCT
Aircraft C25C/M-SDE2E3FGHRWXY/LB1

Departure

Time N/A
Airport Socotra Airport (OYSQ)

Arrival

Time 2026-05-07 23:16
Airport Mwanza International Airport (HTMW)
Time Latitude Longitude Altitude Speed Heading
2026-05-07 20:23 8.92112 48.43096 33910 ft 424 kts 235°
2026-05-07 20:24 8.90421 48.40651 33911 ft 425 kts 235°
2026-05-07 20:24 8.87030 48.35739 33906 ft 426 kts 235°
2026-05-07 20:25 8.83623 48.30815 33905 ft 428 kts 234°
2026-05-07 20:25 8.80205 48.25872 33906 ft 429 kts 235°
2026-05-07 20:26 8.76805 48.20956 33903 ft 430 kts 235°
2026-05-07 20:26 8.73376 48.16002 33906 ft 430 kts 235°
2026-05-07 20:27 8.69937 48.11036 33903 ft 431 kts 234°
2026-05-07 20:27 8.66496 48.06069 33904 ft 431 kts 234°
2026-05-07 20:28 8.63046 48.01090 33910 ft 432 kts 234°
2026-05-07 20:28 8.59618 47.96145 33913 ft 432 kts 235°
2026-05-07 20:29 8.56171 47.91171 33911 ft 432 kts 235°
2026-05-07 20:29 8.52723 47.86199 33918 ft 432 kts 234°
2026-05-07 20:30 8.49272 47.81226 33915 ft 432 kts 234°
2026-05-07 20:30 8.45821 47.76256 33916 ft 432 kts 234°
2026-05-07 20:31 8.42368 47.71286 33921 ft 432 kts 234°
2026-05-07 20:31 8.38916 47.66314 33924 ft 432 kts 234°
2026-05-07 20:32 8.35467 47.61351 33926 ft 432 kts 234°
2026-05-07 20:32 8.32014 47.56382 33930 ft 432 kts 234°
2026-05-07 20:33 8.28582 47.51447 33933 ft 432 kts 234°
2026-05-07 20:33 8.25122 47.46475 33933 ft 432 kts 234°
2026-05-07 20:34 8.21662 47.41503 33932 ft 432 kts 234°
2026-05-07 20:34 8.18201 47.36530 33935 ft 432 kts 234°
2026-05-07 20:35 8.14742 47.31561 33931 ft 433 kts 234°
2026-05-07 20:35 8.11279 47.26590 33928 ft 433 kts 234°
2026-05-07 20:36 8.07836 47.21649 33929 ft 433 kts 234°
2026-05-07 20:36 8.04364 47.16669 33927 ft 434 kts 234°
2026-05-07 20:37 8.00891 47.11690 33929 ft 434 kts 234°
2026-05-07 20:37 7.97413 47.06706 33923 ft 434 kts 234°
2026-05-07 20:38 7.93933 47.01718 33922 ft 435 kts 234°
2026-05-07 20:38 7.90472 46.96758 33918 ft 435 kts 234°
2026-05-07 20:39 7.86992 46.91773 33919 ft 435 kts 234°
2026-05-07 20:39 7.83512 46.86791 33916 ft 435 kts 234°
2026-05-07 20:40 7.80016 46.81790 33912 ft 435 kts 234°
2026-05-07 20:40 7.76528 46.76800 33914 ft 435 kts 234°
2026-05-07 20:41 7.73037 46.71806 33910 ft 435 kts 234°
2026-05-07 20:41 7.69545 46.66815 33905 ft 436 kts 234°
2026-05-07 20:42 7.66073 46.61853 33904 ft 436 kts 234°
2026-05-07 20:42 7.62574 46.56852 33904 ft 436 kts 234°
2026-05-07 20:43 7.59079 46.51858 33909 ft 436 kts 234°
2026-05-07 20:43 7.55576 46.46863 33904 ft 436 kts 234°
2026-05-07 20:44 7.52076 46.41864 33908 ft 436 kts 234°
2026-05-07 20:44 7.48572 46.36865 33908 ft 436 kts 234°
2026-05-07 20:45 7.45093 46.31901 33906 ft 437 kts 234°
2026-05-07 20:45 7.41585 46.26897 33909 ft 437 kts 234°
2026-05-07 20:46 7.38078 46.21898 33907 ft 437 kts 234°
2026-05-07 20:46 7.34565 46.16892 33910 ft 437 kts 234°
2026-05-07 20:47 7.31055 46.11894 33909 ft 437 kts 234°
2026-05-07 20:47 7.27546 46.06896 33910 ft 437 kts 234°
2026-05-07 20:48 7.24037 46.01899 33913 ft 437 kts 234°
2026-05-07 20:48 7.20548 45.96930 33914 ft 437 kts 234°
2026-05-07 20:49 7.17033 45.91930 33907 ft 437 kts 234°
2026-05-07 20:49 7.13516 45.86930 33910 ft 437 kts 233°
2026-05-07 20:50 7.10000 45.81932 33912 ft 437 kts 233°
2026-05-07 20:50 7.06486 45.76936 33915 ft 437 kts 233°
2026-05-07 20:51 7.02969 45.71938 33916 ft 438 kts 233°
2026-05-07 20:51 6.99449 45.66937 33914 ft 438 kts 233°
2026-05-07 20:52 6.96928 45.63355 33907 ft 432 kts 233°
2026-05-07 20:52 6.93446 45.58412 33907 ft 433 kts 233°
2026-05-07 20:53 6.89954 45.53454 33905 ft 434 kts 233°
2026-05-07 20:53 6.86451 45.48479 33910 ft 435 kts 233°
2026-05-07 20:54 6.82941 45.43502 33912 ft 436 kts 233°
2026-05-07 20:54 6.79430 45.38524 33917 ft 436 kts 233°
2026-05-07 20:55 6.75919 45.33546 33916 ft 436 kts 233°
2026-05-07 20:55 6.72404 45.28564 33920 ft 436 kts 233°
2026-05-07 20:56 6.68911 45.23612 33928 ft 437 kts 233°
2026-05-07 20:56 6.65396 45.18632 33926 ft 437 kts 233°
2026-05-07 20:57 6.61875 45.13644 33925 ft 437 kts 233°
2026-05-07 20:57 6.58352 45.08658 33930 ft 437 kts 233°
2026-05-07 20:58 6.54828 45.03669 33933 ft 438 kts 233°
2026-05-07 20:58 6.51300 44.98678 33936 ft 438 kts 233°
2026-05-07 20:59 6.47769 44.93684 33931 ft 438 kts 233°
2026-05-07 20:59 6.44236 44.88688 33937 ft 439 kts 233°
2026-05-07 21:00 6.40696 44.83681 33934 ft 439 kts 233°
2026-05-07 21:00 6.37180 44.78711 33931 ft 439 kts 233°
2026-05-07 21:01 6.33641 44.73708 33933 ft 439 kts 233°
2026-05-07 21:01 6.30096 44.68701 33935 ft 440 kts 233°
2026-05-07 21:02 6.26547 44.63689 33931 ft 440 kts 233°
2026-05-07 21:02 6.23599 44.59525 33928 ft 440 kts 233°
2026-05-07 21:03 6.19925 44.54614 33929 ft 439 kts 228°
2026-05-07 21:03 6.15899 44.49998 33934 ft 439 kts 229°
2026-05-07 21:04 6.12014 44.45258 33933 ft 439 kts 229°
2026-05-07 21:04 6.08057 44.40574 33932 ft 439 kts 229°
2026-05-07 21:05 6.04131 44.35867 33934 ft 439 kts 229°
2026-05-07 21:05 6.00192 44.31171 33930 ft 439 kts 229°
2026-05-07 21:06 5.96253 44.26464 33933 ft 440 kts 229°
2026-05-07 21:06 5.92311 44.21759 33935 ft 440 kts 229°
2026-05-07 21:07 5.88392 44.17082 33936 ft 441 kts 229°
2026-05-07 21:07 5.84435 44.12364 33929 ft 441 kts 229°
2026-05-07 21:08 5.80558 44.07741 33932 ft 442 kts 229°
2026-05-07 21:08 5.76590 44.03010 33931 ft 443 kts 230°
2026-05-07 21:09 5.72621 43.98278 33930 ft 443 kts 230°
2026-05-07 21:09 5.68644 43.93538 33931 ft 444 kts 230°
2026-05-07 21:10 5.64664 43.88794 33930 ft 444 kts 230°
2026-05-07 21:10 5.60682 43.84050 33930 ft 444 kts 230°
2026-05-07 21:11 5.56690 43.79296 33931 ft 445 kts 229°
2026-05-07 21:11 5.50705 43.72170 33933 ft 445 kts 230°
2026-05-07 21:12 5.46709 43.67414 33933 ft 446 kts 229°
2026-05-07 21:12 5.42713 43.62659 33937 ft 446 kts 229°
2026-05-07 21:13 5.38736 43.57928 33940 ft 446 kts 229°
2026-05-07 21:13 5.34737 43.53172 33942 ft 446 kts 229°
2026-05-07 21:14 5.30739 43.48418 33943 ft 446 kts 229°
2026-05-07 21:14 5.26731 43.43654 33942 ft 446 kts 229°
2026-05-07 21:15 5.22731 43.38896 33939 ft 446 kts 229°
2026-05-07 21:15 5.18727 43.34136 33941 ft 446 kts 229°
2026-05-07 21:16 5.14752 43.29415 33940 ft 446 kts 230°
2026-05-07 21:16 5.10748 43.24658 33921 ft 446 kts 229°
2026-05-07 21:17 5.06744 43.19904 33926 ft 446 kts 229°
2026-05-07 21:17 5.02737 43.15147 33921 ft 446 kts 230°
2026-05-07 21:18 4.98736 43.10395 33921 ft 446 kts 230°
2026-05-07 21:18 4.94732 43.05642 33920 ft 446 kts 230°
2026-05-07 21:19 4.90725 43.00886 33920 ft 446 kts 230°
2026-05-07 21:19 4.86720 42.96136 33915 ft 446 kts 230°
2026-05-07 21:20 4.82710 42.91377 33915 ft 446 kts 230°
2026-05-07 21:20 4.78696 42.86619 33917 ft 447 kts 230°
2026-05-07 21:21 4.74706 42.81889 33917 ft 447 kts 230°
2026-05-07 21:21 4.70695 42.77135 33920 ft 447 kts 230°
2026-05-07 21:22 4.66682 42.72377 33915 ft 447 kts 230°
2026-05-07 21:22 4.62667 42.67619 33917 ft 447 kts 230°
2026-05-07 21:23 4.58650 42.62858 33914 ft 447 kts 230°
2026-05-07 21:23 4.54633 42.58102 33914 ft 447 kts 230°
2026-05-07 21:24 4.50617 42.53343 33911 ft 447 kts 230°
2026-05-07 21:24 4.46604 42.48592 33912 ft 447 kts 230°
2026-05-07 21:25 4.42590 42.43842 33909 ft 446 kts 230°
2026-05-07 21:25 4.38582 42.39097 33912 ft 446 kts 230°
2026-05-07 21:26 4.34575 42.34354 33911 ft 446 kts 230°
2026-05-07 21:26 4.30593 42.29642 33910 ft 445 kts 230°
2026-05-07 21:27 4.26588 42.24903 33909 ft 445 kts 230°
2026-05-07 21:27 4.22585 42.20169 33907 ft 445 kts 230°
2026-05-07 21:28 4.18582 42.15436 33909 ft 445 kts 230°
2026-05-07 21:28 4.14585 42.10709 33908 ft 444 kts 230°
2026-05-07 21:29 4.10611 42.06010 33906 ft 444 kts 230°
2026-05-07 21:29 4.06612 42.01285 33909 ft 444 kts 230°
2026-05-07 21:30 4.02614 41.96560 33909 ft 444 kts 230°
2026-05-07 21:30 3.98618 41.91839 33914 ft 444 kts 230°
2026-05-07 21:31 3.94604 41.87127 33913 ft 444 kts 228°
2026-05-07 21:31 3.89944 41.83069 33912 ft 444 kts 220°
2026-05-07 21:32 3.85193 41.79183 33916 ft 444 kts 220°
2026-05-07 21:32 3.80411 41.75268 33915 ft 444 kts 220°
2026-05-07 21:33 3.75628 41.71354 33922 ft 444 kts 220°
2026-05-07 21:33 3.70844 41.67440 33924 ft 443 kts 220°
2026-05-07 21:34 3.66068 41.63532 33925 ft 443 kts 220°
2026-05-07 21:34 3.61297 41.59628 33927 ft 443 kts 220°
2026-05-07 21:35 3.56520 41.55722 33934 ft 443 kts 220°
2026-05-07 21:35 3.51745 41.51816 33937 ft 443 kts 220°
2026-05-07 21:36 3.46966 41.47909 33938 ft 443 kts 220°
2026-05-07 21:36 3.42222 41.44029 33938 ft 443 kts 220°
2026-05-07 21:37 3.37446 41.40126 33944 ft 443 kts 220°
2026-05-07 21:37 3.32671 41.36222 33948 ft 443 kts 219°
2026-05-07 21:38 3.27926 41.32345 33947 ft 442 kts 219°
2026-05-07 21:38 3.23154 41.28446 33950 ft 442 kts 219°
2026-05-07 21:39 3.18393 41.24555 33947 ft 442 kts 219°
2026-05-07 21:39 3.13629 41.20663 33947 ft 442 kts 219°
2026-05-07 21:40 3.08872 41.16776 33948 ft 442 kts 219°
2026-05-07 21:40 3.04134 41.12907 33951 ft 441 kts 219°
2026-05-07 21:41 2.99345 41.08996 33950 ft 441 kts 219°
2026-05-07 21:41 2.94619 41.05138 33950 ft 441 kts 219°
2026-05-07 21:42 2.89866 41.01257 33950 ft 441 kts 219°
2026-05-07 21:42 2.85110 40.97373 33950 ft 441 kts 219°
2026-05-07 21:43 2.80352 40.93488 33947 ft 441 kts 219°
2026-05-07 21:43 2.75594 40.89604 33953 ft 441 kts 219°
2026-05-07 21:44 2.70831 40.85719 33952 ft 441 kts 219°
2026-05-07 21:44 2.66076 40.81838 33951 ft 441 kts 219°
2026-05-07 21:45 2.61355 40.77987 33951 ft 441 kts 219°
2026-05-07 21:45 2.56608 40.74113 33952 ft 440 kts 219°
2026-05-07 21:46 2.51857 40.70237 33952 ft 440 kts 219°
2026-05-07 21:46 2.47102 40.66358 33953 ft 440 kts 219°
2026-05-07 21:47 2.42355 40.62486 33953 ft 440 kts 219°
2026-05-07 21:47 2.37602 40.58621 33959 ft 440 kts 219°
2026-05-07 21:48 2.32831 40.54827 33957 ft 440 kts 219°
2026-05-07 21:48 2.28053 40.50986 33956 ft 440 kts 219°
2026-05-07 21:49 2.23265 40.47154 33953 ft 440 kts 219°
2026-05-07 21:49 2.18481 40.43319 33954 ft 440 kts 219°
2026-05-07 21:50 2.13701 40.39491 33952 ft 440 kts 219°
2026-05-07 21:50 2.08951 40.35685 33950 ft 440 kts 219°
2026-05-07 21:51 2.04174 40.31859 33952 ft 440 kts 219°
2026-05-07 21:51 1.99385 40.28025 33944 ft 440 kts 219°
2026-05-07 21:52 1.94601 40.24193 33944 ft 440 kts 219°
2026-05-07 21:52 1.89816 40.20361 33943 ft 440 kts 219°
2026-05-07 21:53 1.85056 40.16550 33939 ft 440 kts 219°
2026-05-07 21:53 1.80265 40.12714 33941 ft 441 kts 219°
2026-05-07 21:54 1.75480 40.08883 33941 ft 441 kts 219°
2026-05-07 21:54 1.70483 40.05329 33938 ft 441 kts 216°
2026-05-07 21:55 1.66309 40.02395 33938 ft 441 kts 216°
2026-05-07 21:55 1.60455 39.98319 33937 ft 441 kts 216°
2026-05-07 21:56 1.55423 39.94805 33935 ft 441 kts 216°
2026-05-07 21:56 1.50388 39.91294 33937 ft 441 kts 216°
2026-05-07 21:57 1.46172 39.88352 33936 ft 441 kts 216°
2026-05-07 21:57 1.41160 39.84856 33933 ft 441 kts 216°
2026-05-07 21:58 1.36128 39.81346 33933 ft 441 kts 216°
2026-05-07 21:58 1.31095 39.77835 33936 ft 441 kts 216°
2026-05-07 21:59 1.26067 39.74327 33936 ft 441 kts 216°
2026-05-07 21:59 1.21037 39.70820 33933 ft 440 kts 216°
2026-05-07 22:00 1.16011 39.67315 33934 ft 440 kts 216°
2026-05-07 22:00 1.10982 39.63808 33937 ft 440 kts 216°
2026-05-07 22:01 1.05988 39.60325 33938 ft 440 kts 216°
2026-05-07 22:01 1.00969 39.56825 33933 ft 440 kts 216°
2026-05-07 22:02 0.96053 39.53195 33933 ft 439 kts 223°
2026-05-07 22:02 0.91725 39.48884 33928 ft 439 kts 226°
2026-05-07 22:03 0.87430 39.44552 33928 ft 439 kts 226°
2026-05-07 22:03 0.83156 39.40247 33930 ft 439 kts 226°
2026-05-07 22:04 0.78856 39.35913 33933 ft 439 kts 226°
2026-05-07 22:04 0.74560 39.31585 33933 ft 439 kts 226°
2026-05-07 22:05 0.70259 39.27251 33933 ft 439 kts 226°
2026-05-07 22:05 0.65962 39.22922 33933 ft 439 kts 226°
2026-05-07 22:06 0.61688 39.18615 33937 ft 438 kts 226°
2026-05-07 22:06 0.57394 39.14288 33940 ft 438 kts 226°
2026-05-07 22:07 0.53099 39.09961 33944 ft 438 kts 226°
2026-05-07 22:07 0.48803 39.05634 33939 ft 439 kts 226°
2026-05-07 22:08 0.44504 39.01303 33943 ft 439 kts 226°
2026-05-07 22:08 0.40207 38.96974 33948 ft 439 kts 226°
2026-05-07 22:09 0.35902 38.92637 33952 ft 439 kts 226°
2026-05-07 22:09 0.31627 38.88330 33952 ft 439 kts 226°
2026-05-07 22:10 0.27306 38.83977 33956 ft 439 kts 226°
2026-05-07 22:10 0.23028 38.79668 33955 ft 439 kts 225°
2026-05-07 22:11 0.18720 38.75328 33958 ft 439 kts 225°
2026-05-07 22:11 0.14414 38.70991 33962 ft 439 kts 225°
2026-05-07 22:12 0.10112 38.66656 33969 ft 440 kts 226°
2026-05-07 22:12 0.05802 38.62314 33974 ft 440 kts 225°
2026-05-07 22:13 0.01492 38.57973 33976 ft 440 kts 225°
2026-05-07 22:13 -0.02829 38.53621 33980 ft 440 kts 225°
2026-05-07 22:14 -0.07119 38.49298 33987 ft 440 kts 225°
2026-05-07 22:14 -0.11441 38.44946 33994 ft 441 kts 225°
2026-05-07 22:15 -0.15758 38.40597 33997 ft 441 kts 225°
2026-05-07 22:15 -0.20079 38.36245 34005 ft 441 kts 225°
2026-05-07 22:16 -0.24397 38.31896 34010 ft 441 kts 225°
2026-05-07 22:16 -0.28721 38.27538 34017 ft 441 kts 225°
2026-05-07 22:17 -0.33015 38.23211 34020 ft 441 kts 225°
2026-05-07 22:17 -0.37335 38.18859 34023 ft 441 kts 225°
2026-05-07 22:18 -0.43808 38.12339 34030 ft 440 kts 225°
2026-05-07 22:19 -0.48122 38.07992 34039 ft 440 kts 225°
2026-05-07 22:19 -0.52439 38.03643 34044 ft 440 kts 225°
2026-05-07 22:20 -0.56755 37.99295 34052 ft 441 kts 225°
2026-05-07 22:20 -0.61072 37.94946 34060 ft 441 kts 225°
2026-05-07 22:21 -0.65368 37.90619 34064 ft 441 kts 225°
2026-05-07 22:21 -0.69687 37.86267 34071 ft 441 kts 225°
2026-05-07 22:22 -0.74011 37.81910 34074 ft 441 kts 225°
2026-05-07 22:22 -0.78332 37.77555 34077 ft 441 kts 225°
2026-05-07 22:23 -0.82654 37.73199 34084 ft 441 kts 225°
2026-05-07 22:23 -0.86968 37.68834 34086 ft 441 kts 227°
2026-05-07 22:24 -0.90451 37.63813 34086 ft 441 kts 240°
2026-05-07 22:24 -0.93521 37.58507 34093 ft 441 kts 240°
2026-05-07 22:25 -0.96586 37.53209 34096 ft 441 kts 240°
2026-05-07 22:25 -0.99634 37.47936 34101 ft 441 kts 240°
2026-05-07 22:26 -1.02702 37.42634 34109 ft 441 kts 240°
2026-05-07 22:26 -1.05770 37.37325 34107 ft 441 kts 240°
2026-05-07 22:27 -1.08840 37.32015 34118 ft 441 kts 240°
2026-05-07 22:27 -1.11907 37.26708 34119 ft 441 kts 240°
2026-05-07 22:28 -1.14975 37.21401 34131 ft 441 kts 240°
2026-05-07 22:28 -1.18045 37.16091 34162 ft 441 kts 240°
2026-05-07 22:29 -1.21116 37.10781 34180 ft 441 kts 240°
2026-05-07 22:29 -1.24166 37.05504 34203 ft 441 kts 240°
2026-05-07 22:30 -1.27234 37.00196 34220 ft 440 kts 240°
2026-05-07 22:30 -1.30089 36.94785 34215 ft 440 kts 249°
2026-05-07 22:31 -1.31903 36.88944 34216 ft 440 kts 253°
2026-05-07 22:31 -1.33650 36.83080 34271 ft 440 kts 254°
2026-05-07 22:32 -1.35373 36.77243 34270 ft 440 kts 254°
2026-05-07 22:32 -1.37110 36.71382 34261 ft 440 kts 253°
2026-05-07 22:33 -1.38848 36.65511 34224 ft 440 kts 254°
2026-05-07 22:33 -1.40586 36.59641 34182 ft 441 kts 253°
2026-05-07 22:34 -1.42325 36.53769 34137 ft 441 kts 254°
2026-05-07 22:34 -1.44064 36.47894 34086 ft 441 kts 254°
2026-05-07 22:35 -1.45802 36.42016 34073 ft 441 kts 254°
2026-05-07 22:35 -1.47543 36.36133 34061 ft 441 kts 254°
2026-05-07 22:36 -1.49284 36.30246 34057 ft 441 kts 254°
2026-05-07 22:36 -1.51025 36.24366 34057 ft 442 kts 254°
2026-05-07 22:37 -1.52756 36.18512 34054 ft 441 kts 254°
2026-05-07 22:37 -1.54496 36.12633 34061 ft 441 kts 254°
2026-05-07 22:38 -1.56232 36.06759 34061 ft 440 kts 254°
2026-05-07 22:38 -1.57968 36.00888 34066 ft 440 kts 254°
2026-05-07 22:39 -1.59701 35.95027 34067 ft 439 kts 254°
2026-05-07 22:39 -1.61435 35.89163 34075 ft 439 kts 254°
2026-05-07 22:40 -1.63166 35.83308 34075 ft 439 kts 254°
2026-05-07 22:40 -1.64886 35.77489 34082 ft 439 kts 254°
2026-05-07 22:41 -1.66616 35.71640 34087 ft 439 kts 254°
2026-05-07 22:41 -1.68343 35.65790 34087 ft 439 kts 254°
2026-05-07 22:42 -1.70076 35.59930 34080 ft 439 kts 254°
2026-05-07 22:42 -1.71807 35.54069 34073 ft 439 kts 254°
2026-05-07 22:43 -1.73245 35.49200 34067 ft 440 kts 254°
2026-05-07 22:43 -1.75259 35.42382 34055 ft 440 kts 254°
2026-05-07 22:44 -1.76710 35.37468 34054 ft 440 kts 254°
2026-05-07 22:44 -1.78127 35.31564 34048 ft 440 kts 257°
2026-05-07 22:45 -1.79542 35.25603 34043 ft 440 kts 257°
2026-05-07 22:45 -1.80932 35.19644 34037 ft 440 kts 257°
2026-05-07 22:46 -1.82330 35.13695 34039 ft 440 kts 257°
2026-05-07 22:46 -1.83727 35.07734 34031 ft 440 kts 257°
2026-05-07 22:47 -1.85019 35.02230 34015 ft 436 kts 257°
2026-05-07 22:47 -1.86539 34.96393 34010 ft 437 kts 255°
2026-05-07 22:48 -1.88197 34.90541 34005 ft 438 kts 255°
2026-05-07 22:48 -1.89851 34.84675 34006 ft 438 kts 255°
2026-05-07 22:49 -1.91512 34.78810 34000 ft 439 kts 255°
2026-05-07 22:49 -1.93172 34.72932 33994 ft 439 kts 255°
2026-05-07 22:50 -1.94826 34.67087 33995 ft 439 kts 255°
2026-05-07 22:50 -1.96487 34.61209 33990 ft 440 kts 255°
2026-05-07 22:51 -1.98153 34.55318 33982 ft 440 kts 255°
2026-05-07 22:51 -1.99818 34.49425 33984 ft 440 kts 255°
2026-05-07 22:52 -2.01492 34.43537 33979 ft 441 kts 253°
2026-05-07 22:52 -2.03516 34.37742 33975 ft 441 kts 251°
2026-05-07 22:53 -2.05516 34.31938 33978 ft 442 kts 251°
2026-05-07 22:53 -2.07531 34.26158 33975 ft 442 kts 251°
2026-05-07 22:54 -2.09219 34.20249 33967 ft 442 kts 255°
2026-05-07 22:54 -2.10052 34.17268 33597 ft 450 kts 255°
2026-05-07 22:54 -2.10908 34.14214 32986 ft 461 kts 255°
2026-05-07 22:54 -2.11750 34.11169 32387 ft 447 kts 255°
2026-05-07 22:55 -2.12562 34.08221 31840 ft 433 kts 255°
2026-05-07 22:55 -2.13353 34.05357 31316 ft 421 kts 255°
2026-05-07 22:55 -2.14127 34.02568 30796 ft 412 kts 255°
2026-05-07 22:55 -2.14883 33.99836 30280 ft 404 kts 254°
2026-05-07 22:56 -2.15626 33.97153 29735 ft 398 kts 254°
2026-05-07 22:56 -2.16348 33.94542 29234 ft 391 kts 254°
2026-05-07 22:56 -2.17067 33.91942 28748 ft 385 kts 254°
2026-05-07 22:56 -2.17779 33.89377 28257 ft 381 kts 254°
2026-05-07 22:57 -2.18479 33.86839 27767 ft 377 kts 254°
2026-05-07 22:57 -2.19170 33.84350 27539 ft 367 kts 254°
2026-05-07 22:57 -2.19848 33.81892 27086 ft 366 kts 254°
2026-05-07 22:57 -2.20525 33.79445 26608 ft 365 kts 254°
2026-05-07 22:58 -2.21202 33.76998 26126 ft 365 kts 254°
2026-05-07 22:58 -2.21878 33.74554 25648 ft 365 kts 254°
2026-05-07 22:58 -2.22555 33.72111 25166 ft 365 kts 254°
2026-05-07 22:58 -2.23230 33.69662 24683 ft 365 kts 254°
2026-05-07 22:59 -2.23908 33.67218 24205 ft 365 kts 254°
2026-05-07 22:59 -2.24585 33.64763 23719 ft 366 kts 254°
2026-05-07 22:59 -2.25264 33.62312 23191 ft 365 kts 254°
2026-05-07 22:59 -2.25939 33.59870 22699 ft 363 kts 254°
2026-05-07 23:00 -2.26609 33.57445 22221 ft 361 kts 255°
2026-05-07 23:00 -2.27277 33.55035 21754 ft 359 kts 254°
2026-05-07 23:00 -2.27929 33.52667 21286 ft 357 kts 255°
2026-05-07 23:00 -2.28592 33.50277 20821 ft 356 kts 255°
2026-05-07 23:01 -2.29249 33.47889 20350 ft 355 kts 255°
2026-05-07 23:01 -2.29908 33.45513 19882 ft 354 kts 255°
2026-05-07 23:01 -2.30563 33.43139 19413 ft 353 kts 255°
2026-05-07 23:01 -2.31218 33.40772 18950 ft 353 kts 255°
2026-05-07 23:02 -2.31872 33.38406 18485 ft 352 kts 255°
2026-05-07 23:02 -2.32523 33.36046 17991 ft 352 kts 255°
2026-05-07 23:02 -2.33175 33.33693 17518 ft 350 kts 255°
2026-05-07 23:02 -2.33817 33.31358 17057 ft 347 kts 255°
2026-05-07 23:03 -2.34461 33.29038 16601 ft 345 kts 255°
2026-05-07 23:03 -2.35089 33.26752 16161 ft 344 kts 255°
2026-05-07 23:03 -2.35728 33.24451 15729 ft 343 kts 255°
2026-05-07 23:03 -2.36359 33.22154 15289 ft 342 kts 254°
2026-05-07 23:04 -2.36995 33.19861 14853 ft 341 kts 254°
2026-05-07 23:04 -2.37624 33.17576 14422 ft 340 kts 254°
2026-05-07 23:04 -2.38252 33.15304 13992 ft 334 kts 254°
2026-05-07 23:04 -2.38858 33.13111 13554 ft 321 kts 254°
2026-05-07 23:05 -2.39439 33.11001 13161 ft 309 kts 254°
2026-05-07 23:05 -2.40006 33.08958 12778 ft 300 kts 253°
2026-05-07 23:05 -2.40552 33.06967 12410 ft 294 kts 253°
2026-05-07 23:05 -2.41094 33.05014 12046 ft 289 kts 253°
2026-05-07 23:06 -2.41624 33.03086 11682 ft 286 kts 253°
2026-05-07 23:06 -2.42152 33.01179 11320 ft 283 kts 253°
2026-05-07 23:06 -2.42667 32.99314 10953 ft 281 kts 253°
2026-05-07 23:06 -2.43184 32.97434 10587 ft 280 kts 253°
2026-05-07 23:07 -2.43666 32.95550 10218 ft 280 kts 259°
2026-05-07 23:07 -2.43444 32.93620 9833 ft 284 kts 288°
2026-05-07 23:07 -2.42397 32.91973 9447 ft 280 kts 316°
2026-05-07 23:07 -2.40909 32.90765 9089 ft 272 kts 322°
2026-05-07 23:08 -2.39421 32.89649 8744 ft 263 kts 324°
2026-05-07 23:08 -2.37960 32.88570 8417 ft 259 kts 323°
2026-05-07 23:08 -2.36530 32.87483 8085 ft 257 kts 322°
2026-05-07 23:08 -2.35118 32.86398 7737 ft 255 kts 322°
2026-05-07 23:09 -2.33714 32.85331 7400 ft 253 kts 322°
2026-05-07 23:09 -2.32316 32.84265 7063 ft 251 kts 322°
2026-05-07 23:09 -2.30929 32.83209 6723 ft 251 kts 322°
2026-05-07 23:09 -2.29814 32.81902 6371 ft 249 kts 293°
2026-05-07 23:10 -2.29521 32.80212 6004 ft 247 kts 263°
2026-05-07 23:10 -2.30081 32.78645 5934 ft 238 kts 235°
2026-05-07 23:10 -2.31313 32.77559 5930 ft 238 kts 209°
2026-05-07 23:10 -2.32788 32.76814 5937 ft 236 kts 205°
2026-05-07 23:11 -2.34360 32.76451 5930 ft 234 kts 176°
2026-05-07 23:11 -2.35890 32.76945 5933 ft 233 kts 146°
2026-05-07 23:11 -2.36927 32.78119 5947 ft 224 kts 119°
2026-05-07 23:11 -2.37585 32.79425 5971 ft 201 kts 116°
2026-05-07 23:12 -2.38150 32.80601 5956 ft 171 kts 116°
2026-05-07 23:12 -2.38615 32.81548 5850 ft 140 kts 116°
2026-05-07 23:12 -2.39032 32.82383 5732 ft 130 kts 117°
2026-05-07 23:12 -2.39426 32.83180 5611 ft 127 kts 116°
2026-05-07 23:13 -2.39825 32.83974 5456 ft 128 kts 116°
2026-05-07 23:13 -2.40223 32.84774 5298 ft 129 kts 116°
2026-05-07 23:13 -2.40625 32.85577 5133 ft 129 kts 117°
2026-05-07 23:13 -2.41024 32.86387 4974 ft 131 kts 116°
2026-05-07 23:14 -2.41429 32.87200 4799 ft 133 kts 115°
2026-05-07 23:14 -2.41842 32.88018 4620 ft 130 kts 115°
2026-05-07 23:14 -2.42239 32.88821 4443 ft 127 kts 115°
2026-05-07 23:14 -2.42629 32.89606 4281 ft 124 kts 113°
2026-05-07 23:15 -2.43008 32.90364 4183 ft 119 kts 114°
2026-05-07 23:15 -2.43383 32.91098 4000 ft 115 kts 115°
2026-05-07 23:15 -2.43713 32.91796 3845 ft 105 kts 114°
2026-05-07 23:15 -2.44021 32.92405 3735 ft 88 kts 118°
2026-05-07 23:16 -2.44197 32.92758 3737 ft 39 kts 116°
2026-05-07 23:16 -2.44301 32.92971 3737 ft 29 kts 116°
2026-05-07 23:16 -2.44373 32.93116 3739 ft 16 kts 117°
2026-05-07 23:16 -2.44416 32.93199 3740 ft 7 kts 117°
2026-05-07 23:17 -2.44449 32.93221 3740 ft 5 kts 182°
2026-05-07 23:17 -2.44486 32.93207 3740 ft 6 kts 205°
2026-05-07 23:17 -2.44531 32.93185 3739 ft 8 kts 208°
2026-05-07 23:17 -2.44586 32.93156 3739 ft 9 kts 206°
2026-05-07 23:18 -2.44620 32.93140 3738 ft 5 kts 205°
2026-05-07 23:18 -2.44636 32.93122 3738 ft 3 kts 274°
2026-05-07 23:18 -2.44626 32.93095 3738 ft 6 kts 295°
2026-05-07 23:18 -2.44604 32.93050 3738 ft 9 kts 297°
2026-05-07 23:19 -2.44582 32.93006 3738 ft 0 kts 297°
2026-05-07 23:19 -2.44577 32.92996 3738 ft 8 kts 295°
2026-05-07 23:19 -2.44544 32.92930 3737 ft 11 kts 296°
2026-05-07 23:19 -2.44510 32.92861 3737 ft 11 kts 296°
2026-05-07 23:20 -2.44475 32.92791 3737 ft 11 kts 296°
2026-05-07 23:20 -2.44441 32.92720 3736 ft 11 kts 295°
2026-05-07 23:20 -2.44406 32.92651 3736 ft 11 kts 296°
2026-05-07 23:20 -2.44374 32.92580 3736 ft 11 kts 294°
2026-05-07 23:21 -2.44317 32.92561 3735 ft 8 kts 22°
2026-05-07 23:21 -2.44265 32.92582 3735 ft 9 kts 25°
2026-05-07 23:21 -2.44201 32.92613 3735 ft 11 kts 26°
2026-05-07 23:21 -2.44153 32.92668 3736 ft 12 kts 103°
2026-05-07 23:22 -2.44190 32.92745 3736 ft 13 kts 118°
2026-05-07 23:22 -2.44231 32.92828 3737 ft 14 kts 116°
2026-05-07 23:22 -2.44277 32.92920 3737 ft 16 kts 116°
2026-05-07 23:22 -2.44329 32.93023 3738 ft 17 kts 117°
2026-05-07 23:23 -2.44384 32.93134 3740 ft 18 kts 116°
2026-05-07 23:23 -2.44443 32.93253 3740 ft 20 kts 116°
2026-05-07 23:23 -2.44509 32.93383 3740 ft 22 kts 116°
2026-05-07 23:23 -2.44577 32.93520 3741 ft 22 kts 116°
2026-05-07 23:24 -2.44643 32.93653 3740 ft 21 kts 117°
2026-05-07 23:24 -2.44705 32.93775 3740 ft 19 kts 117°
2026-05-07 23:24 -2.44763 32.93890 3739 ft 18 kts 116°
2026-05-07 23:24 -2.44818 32.94000 3739 ft 17 kts 116°
2026-05-07 23:25 -2.44868 32.94101 3741 ft 15 kts 117°
2026-05-07 23:25 -2.44914 32.94191 3741 ft 14 kts 116°
2026-05-07 23:25 -2.44956 32.94277 3742 ft 13 kts 116°
2026-05-07 23:25 -2.44996 32.94356 3742 ft 12 kts 116°
2026-05-07 23:26 -2.45031 32.94427 3744 ft 11 kts 116°
2026-05-07 23:26 -2.45071 32.94485 3744 ft 10 kts 153°
2026-05-07 23:26 -2.45136 32.94474 3744 ft 10 kts 204°
2026-05-07 23:26 -2.45201 32.94443 3744 ft 6 kts 205°
2026-05-07 23:27 -2.45232 32.94369 3744 ft 8 kts 300°
2026-05-07 23:27 -2.45218 32.94343 3743 ft 2 kts 298°
2026-05-07 23:27 -2.45205 32.94321 3743 ft 4 kts 312°
2026-05-07 23:28 -2.45190 32.94320 3743 ft 2 kts 25°
2026-05-07 23:28 -2.45186 32.94323 3743 ft 0 kts 25°